Preview of NWS' New Version of Forecast
This preview is not operational and should not be used for support decisions.

Regional Weather Roundup (RWR)

Issued by National Weather Service (NWS)

                            
000
ASUS46 KSEW 180210
RWRWA 

WASHINGTON REGIONAL WEATHER ROUNDUP
NATIONAL WEATHER SERVICE SEATTLE WA
700 PM PDT TUE SEP 17 2019

NOTE:"FAIR" INDICATES FEW OR NO CLOUDS BELOW 12,000 FEET WITH NO 
SIGNIFICANT WEATHER AND/OR OBSTRUCTIONS TO VISIBILITY.

WAZ507-509-555>559-180300-
SEATTLE, TACOMA, EVERETT, AND VICINITY
  
CITY           SKY/WX    TMP DP  RH WIND       PRES   REMARKS
EVERETT        CLOUDY    58  55  90 SE10      29.73S                  
BOEING FIELD   CLOUDY    59  54  83 SE9       29.73S                  
RENTON         LGT RAIN  59  55  87 VRB3      29.73S FOG              
SEATAC AIRPORT LGT RAIN  58  54  86 S8        29.73F                  
JBLM-MCCHORD   LGT RAIN  56  55  99 SE5       29.74F FOG              
PUYALLUP       DRIZZLE   57  57 100 CALM      29.74F                  
BREMERTON      CLOUDY    55  55 100 S3        29.73R                  
JBLM-FT LEWIS  RAIN      55  55 100 SE5G16    29.73S                  
TACOMA NARROWS LGT RAIN  55  54  96 S9        29.72F                  
$$
 
WAZ001-503-506-510-514-515-180300-
NORTH INTERIOR
  
CITY           SKY/WX    TMP DP  RH WIND       PRES   REMARKS
BELLINGHAM     CLOUDY    62  50  64 SE7       29.71S                  
FRIDAY HARBOR  CLOUDY    57  54  89 VRB3      29.71R                  
EASTSOUND      CLOUDY    61  55  82 SE6       29.68F                  
PORT ANGELES   LGT RAIN  55  55 100 CALM      29.70S                  
EDIZ HOOK      LGT RAIN  55  54  98 W5        29.69S                  
PORT TOWNSEND  MOCLDY    59  55  88 CALM      29.69S                  
NAS WHIDBEY    CLOUDY    63  53  70 SE13      29.74R                  
ARLINGTON      LGT RAIN  58  54  86 CALM      29.73S                  
BURLINGTON     CLOUDY    61  54  77 E10       29.72R                  
$$
 
WAZ020-022-039-040-504-511-512-180300-
SOUTHWEST INTERIOR
  
CITY           SKY/WX    TMP DP  RH WIND       PRES   REMARKS
SHELTON        CLOUDY    59  55  87 SE7       29.70S                  
OLYMPIA        LGT RAIN  57  55  93 S7        29.73S                  
CHEHALIS       RAIN      59  59 100 S5        29.74S                  
KELSO          CLOUDY    61  57  87 SE10      29.73F                  
VANCOUVER      LGT RAIN  60  56  86 VRB5      29.76F FOG              
SCAPPOOSE, OR  MOCLDY    59  57  93 S5        29.74F                  
PORTLAND, OR   RAIN      60  57  89 SW6       29.76F FOG              
$$
 
WAZ021-516-517-180300-
WASHINGTON COAST
  
CITY           SKY/WX    TMP DP  RH WIND       PRES   REMARKS
FORKS          MOCLDY    57  55  93 CALM      29.67S                  
HOQUIAM        CLOUDY    60  58  92 S6        29.69F                  
ASTORIA, OR    CLOUDY    59  56  89 S5        29.71S                  
$$
 
WAZ019-023-024-040-567>569-180300-
CASCADE MOUNTAINS AND COLUMBIA GORGE
  
CITY           SKY/WX    TMP DP  RH WIND       PRES   REMARKS
STAMPEDE PASS  NOT AVBL                                               
TROUTDALE, OR  RAIN      60  56  86 E5        29.76F FOG              
HOOD RIVER, OR CLOUDY    59  55  88 CALM      29.78F                  
THE DALLES, OR MOCLDY    64  50  60 SW5       29.75F                  
$$

WAZ026-027-041>044-520-521-180300-
EAST SLOPES
  
CITY           SKY/WX    TMP DP  RH WIND       PRES   REMARKS
OMAK           LGT RAIN  54  50  86 W6        29.83F                  
WENATCHEE      CLOUDY    58  47  66 E5        29.78F                  
ELLENSBURG     CLOUDY    58  49  72 NE3       29.78F                  
YAKIMA         MOCLDY    60  51  72 W5        29.77F                  
SUNNYSIDE ARPT MOCLDY    59  51  76 E7        29.78F                  
YAKIMA TC      MOCLDY    60  48  66 CALM      29.76S                  
$$

WAZ028-034-035-180300-
COLUMBIA BASIN
  
CITY           SKY/WX    TMP DP  RH WIND       PRES   REMARKS
EPHRATA        CLOUDY    60  48  64 CALM      29.79F                  
MOSES LAKE     MOCLDY    62  49  62 SE5       29.80F                  
PASCO          CLEAR     67  48  50 SW6       29.79F                  
RICHLAND ARPT  CLEAR     67  49  52 S6        29.79                   
HERMISTON, OR  MOCLDY    66  46  48 S10       29.78F                  
$$

WAZ036>038-180300-
NORTHEAST WASHINGTON
  
CITY           SKY/WX    TMP DP  RH WIND       PRES   REMARKS
SPOKANE GEIGER MOCLDY    58  43  57 W10       29.86S                  
SPOKANE FELTS  CLOUDY    63  39  41 CALM      29.85S                  
FAIRCHILD AFB  CLOUDY    56  46  69 NW3       29.85F                  
COEURDALENE,ID MOCLDY    60  41  49 E5        29.86F                  
DEER PARK      CLOUDY    59  47  64 CALM      29.86S                  
$$

WAZ029>033-180300-
SOUTHEAST WASHINGTON
  
CITY           SKY/WX    TMP DP  RH WIND       PRES   REMARKS
PULLMAN        CLOUDY    63  38  39 S5        29.86F                  
LEWISTON, ID   CLOUDY    70  40  33 E6        29.81F                  
WALLA WALLA    CLOUDY    64  47  53 NE10      29.80F                  
PENDLETON, OR  MOCLDY    63  43  48 S12       29.81F                  
$$